GW2898 Weather Reports


Display with metric or nautical units.
time (UTC)temp
F
wind
direction
speed
MPH
gust
MPH
rain 1hr
in
rain 24hr
in
rain mn
in
humidity
%
barometer
mb
20260503004933 91 177 0.0 3.0 0.00 0.00 0.00 17 1012.1
20260503004429 90 224 0.0 2.0 0.00 0.00 0.00 16 1012.1
20260503003927 90 115 1.0 2.0 0.00 0.00 0.00 17 1012.2
20260503003424 91 65 3.0 4.0 0.00 0.00 0.00 16 1012.0
20260503002921 92 164 0.0 3.0 0.00 0.00 0.00 17 1012.1
20260503002418 92 259 1.0 5.0 0.00 0.00 0.00 16 1012.1
20260503001914 91 82 2.0 5.0 0.00 0.00 0.00 15 1012.3
20260503001411 91 68 4.0 7.0 0.00 0.00 0.00 15 1012.2
20260503000909 91 98 4.0 6.0 0.00 0.00 0.00 16 1012.2
20260503000407 92 44 6.0 8.0 0.00 0.00 0.00 14 1012.2
20260502235903 93 76 2.0 4.0 0.00 0.00 0.00 16 1012.4
20260502235359 92 93 1.0 3.0 0.00 0.00 0.00 16 1012.4
20260502234856 93 81 1.0 3.0 0.00 0.00 0.00 17 1012.4
20260502234353 94 200 1.0 3.0 0.00 0.00 0.00 16 1012.3
20260502233850 94 18 1.0 4.0 0.00 0.00 0.00 15 1012.3
20260502233346 93 325 1.0 3.0 0.00 0.00 0.00 17 1012.3
20260502232843 92 119 0.0 5.0 0.00 0.00 0.00 18 1012.4
20260502232339 92 69 4.0 11.0 0.00 0.00 0.00 15 1012.5
20260502231836 93 157 1.0 4.0 0.00 0.00 0.00 14 1012.6
20260502231334 92 230 3.0 9.0 0.00 0.00 0.00 16 1012.4
20260502230832 92 247 3.0 9.0 0.00 0.00 0.00 17 1012.6
20260502230330 93 245 2.0 3.0 0.00 0.00 0.00 21 1012.6
20260502225826 93 209 3.0 7.0 0.00 0.00 0.00 17 1012.6
20260502225322 94 161 3.0 8.0 0.00 0.00 0.00 18 1012.8
20260502224819 94 49 2.0 3.0 0.00 0.00 0.00 16 1012.8
20260502224310 92 320 3.0 6.0 0.00 0.00 0.00 17 1013.0
20260502223808 93 214 3.0 6.0 0.00 0.00 0.00 15 1013.2
20260502223306 93 176 0.0 5.0 0.00 0.00 0.00 19 1013.0
20260502222803 95 74 4.0 6.0 0.00 0.00 0.00 15 1013.1
20260502222300 92 359 2.0 5.0 0.00 0.00 0.00 15 1013.2
20260502221756 93 82 2.0 4.0 0.00 0.00 0.00 18 1013.5
20260502221252 93 249 2.0 4.0 0.00 0.00 0.00 20 1013.8
20260502220749 92 39 0.0 4.0 0.00 0.00 0.00 14 1013.4
20260502220245 92 14 3.0 7.0 0.00 0.00 0.00 15 1013.3
20260502215742 92 36 2.0 7.0 0.00 0.00 0.00 16 1013.6
20260502215239 92 131 2.0 12.0 0.00 0.00 0.00 16 1013.8
20260502214737 92 264 3.0 7.0 0.00 0.00 0.00 17 1013.9
20260502214235 93 231 2.0 3.0 0.00 0.00 0.00 16 1014.0
20260502213731 93 224 0.0 3.0 0.00 0.00 0.00 15 1014.1
20260502213228 91 223 5.0 9.0 0.00 0.00 0.00 17 1013.9
20260502212726 91 252 8.0 10.0 0.00 0.00 0.00 17 1014.2
20260502212224 92 181 2.0 5.0 0.00 0.00 0.00 15 1014.3
20260502211720 92 252 2.0 6.0 0.00 0.00 0.00 17 1014.2
20260502211217 92 111 2.0 2.0 0.00 0.00 0.00 15 1014.4
20260502210714 91 251 4.0 12.0 0.00 0.00 0.00 16 1014.2
20260502210211 91 240 2.0 7.0 0.00 0.00 0.00 17 1014.4
20260502205708 92 224 7.0 10.0 0.00 0.00 0.00 17 1014.6
20260502205159 92 87 3.0 9.0 0.00 0.00 0.00 18 1014.6
20260502204655 91 80 6.0 12.0 0.00 0.00 0.00 19 1014.7
20260502204153 91 219 3.0 6.0 0.00 0.00 0.00 17 1014.5
20260502203650 91 31 3.0 7.0 0.00 0.00 0.00 17 1015.0
20260502203149 91 253 3.0 12.0 0.00 0.00 0.00 19 1015.1
20260502202643 90 311 1.0 5.0 0.00 0.00 0.00 22 1015.0
20260502202142 92 82 0.0 3.0 0.00 0.00 0.00 21 1015.0
20260502201638 91 89 1.0 5.0 0.00 0.00 0.00 19 1015.0
20260502201134 91 191 2.0 5.0 0.00 0.00 0.00 20 1015.3
20260502200630 91 78 6.0 6.0 0.00 0.00 0.00 20 1015.2
20260502200127 91 13 1.0 3.0 0.00 0.00 0.00 20 1015.3
20260502195626 89 223 2.0 6.0 0.00 0.00 0.00 23 1015.4
20260502195121 90 171 4.0 11.0 0.00 0.00 0.00 20 1015.6
20260502194618 89 180 1.0 9.0 0.00 0.00 0.00 23 1015.3
20260502194114 90 176 3.0 6.0 0.00 0.00 0.00 22 1015.7
20260502193611 91 187 2.0 5.0 0.00 0.00 0.00 21 1015.6
20260502193108 90 75 3.0 7.0 0.00 0.00 0.00 23 1015.8
20260502192604 89 55 4.0 7.0 0.00 0.00 0.00 22 1015.8
20260502192102 88 140 1.0 14.0 0.00 0.00 0.00 24 1016.0
20260502191558 89 113 5.0 10.0 0.00 0.00 0.00 23 1016.0
20260502191055 89 197 2.0 7.0 0.00 0.00 0.00 26 1016.1
20260502190553 88 205 1.0 5.0 0.00 0.00 0.00 25 1016.2
20260502190050 89 70 8.0 12.0 0.00 0.00 0.00 23 1016.2
20260502185544 89 98 7.0 9.0 0.00 0.00 0.00 24 1016.1
20260502185042 88 235 2.0 5.0 0.00 0.00 0.00 28 1016.2
20260502184537 89 44 5.0 6.0 0.00 0.00 0.00 25 1016.5
20260502184033 88 54 3.0 9.0 0.00 0.00 0.00 24 1016.5
20260502183530 88 132 3.0 8.0 0.00 0.00 0.00 25 1016.4
20260502183026 88 61 4.0 8.0 0.00 0.00 0.00 24 1016.7
20260502182521 88 88 3.0 9.0 0.00 0.00 0.00 25 1016.8
20260502182017 88 74 4.0 7.0 0.00 0.00 0.00 27 1016.8
20260502181515 88 161 3.0 9.0 0.00 0.00 0.00 26 1016.9
20260502181014 88 147 2.0 6.0 0.00 0.00 0.00 27 1016.7
20260502180511 87 100 9.0 11.0 0.00 0.00 0.00 26 1017.1
20260502170430 86 77 3.0 10.0 0.00 0.00 0.00 30 1017.3
20260502163913 84 181 2.0 8.0 0.00 0.00 0.00 31 1017.3
20260502163409 85 182 5.0 7.0 0.00 0.00 0.00 30 1017.0
20260502162907 85 202 3.0 8.0 0.00 0.00 0.00 29 1017.4
20260502162358 83 161 2.0 8.0 0.00 0.00 0.00 31 1017.2
20260502161855 84 86 1.0 5.0 0.00 0.00 0.00 31 1017.2
20260502161351 84 145 2.0 9.0 0.00 0.00 0.00 31 1017.1
20260502160849 83 202 3.0 5.0 0.00 0.00 0.00 33 1017.4
20260502160348 83 108 2.0 9.0 0.00 0.00 0.00 32 1017.3
20260502152328 81 41 5.0 10.0 0.00 0.00 0.00 32 1017.0
20260502151825 82 37 1.0 6.0 0.00 0.00 0.00 33 1016.9
20260502151322 81 111 1.0 4.0 0.00 0.00 0.00 32 1016.9
20260502150820 81 73 0.0 4.0 0.00 0.00 0.00 31 1016.8
20260502150316 80 94 3.0 5.0 0.00 0.00 0.00 32 1016.9
20260502130704 62 61 1.0 2.0 0.00 0.00 0.00 51 1015.3
20260502130202 61 115 0.0 2.0 0.00 0.00 0.00 53 1015.2
20260502123647 59 70 2.0 3.0 0.00 0.00 0.00 54 1015.1
20260502123144 59 151 1.0 2.0 0.00 0.00 0.00 54 1015.0
20260502122640 59 86 1.0 2.0 0.00 0.00 0.00 53 1014.8
20260502122137 59 46 0.0 2.0 0.00 0.00 0.00 54 1014.8
20260502121636 59 62 3.0 3.0 0.00 0.00 0.00 53 1014.8
20260502121133 59 164 0.0 3.0 0.00 0.00 0.00 53 1014.7
20260502120629 59 175 0.0 3.0 0.00 0.00 0.00 52 1014.6
20260502120126 60 102 2.0 3.0 0.00 0.00 0.00 52 1014.8
20260502115624 60 82 1.0 3.0 0.00 0.00 0.00 51 1014.7
20260502115119 60 175 0.0 2.0 0.00 0.00 0.00 52 1014.5
20260502114616 60 22 3.0 4.0 0.00 0.00 0.00 52 1014.4
20260502114113 60 101 0.0 3.0 0.00 0.00 0.00 50 1014.5
20260502113610 60 91 1.0 2.0 0.00 0.00 0.00 49 1014.5
20260502113109 60 88 2.0 3.0 0.00 0.00 0.00 50 1014.4
20260502112606 60 146 0.0 2.0 0.00 0.00 0.00 48 1014.5
20260502112104 60 35 2.0 2.0 0.00 0.00 0.00 49 1014.3
20260502111601 60 89 1.0 2.0 0.00 0.00 0.00 48 1014.4
20260502111058 61 81 0.0 2.0 0.00 0.00 0.00 46 1014.5
20260502110556 61 89 1.0 3.0 0.00 0.00 0.00 45 1014.4
20260502110053 62 142 0.0 2.0 0.00 0.00 0.00 46 1014.3
20260502105550 62 53 0.0 1.0 0.00 0.00 0.00 45 1014.5
20260502105048 62 139 1.0 2.0 0.00 0.00 0.00 44 1014.3
20260502104545 64 80 1.0 2.0 0.00 0.00 0.00 43 1014.3
20260502104042 64 36 1.0 2.0 0.00 0.00 0.00 42 1014.3
20260502103540 64 16 1.0 2.0 0.00 0.00 0.00 43 1014.4
20260502103038 64 37 1.0 3.0 0.00 0.00 0.00 43 1014.3
20260502102534 65 140 1.0 2.0 0.00 0.00 0.00 40 1014.0
20260502102031 66 88 1.0 3.0 0.00 0.00 0.00 38 1014.3
20260502101529 64 188 2.0 2.0 0.00 0.00 0.00 42 1014.2
20260502101027 64 61 1.0 3.0 0.00 0.00 0.00 43 1014.1
20260502100525 64 72 0.0 2.0 0.00 0.00 0.00 42 1014.3
20260502091500 65 46 1.0 2.0 0.00 0.00 0.00 40 1013.9
20260502090957 65 42 1.0 2.0 0.00 0.00 0.00 39 1014.0
20260502090454 66 133 0.0 2.0 0.00 0.00 0.00 38 1013.8
20260502071349 66 141 0.0 2.0 0.00 0.00 0.00 34 1013.5
20260502070847 66 139 0.0 2.0 0.00 0.00 0.00 35 1013.4
20260502070344 66 37 0.0 2.0 0.00 0.00 0.00 35 1013.3
20260502065843 66 110 0.0 2.0 0.00 0.00 0.00 35 1013.5
20260502065340 66 89 0.0 2.0 0.00 0.00 0.00 35 1013.5
20260502064838 66 93 1.0 2.0 0.00 0.00 0.00 37 1013.4
20260502064336 66 55 0.0 2.0 0.00 0.00 0.00 37 1013.5
20260502063833 66 87 1.0 2.0 0.00 0.00 0.00 39 1013.4
20260502063331 67 63 0.0 2.0 0.00 0.00 0.00 38 1013.4
20260502062828 67 135 0.0 2.0 0.00 0.00 0.00 36 1013.5
20260502062325 66 104 0.0 2.0 0.00 0.00 0.00 40 1013.3
20260502061824 67 53 0.0 1.0 0.00 0.00 0.00 39 1013.6
20260502061321 67 145 0.0 1.0 0.00 0.00 0.00 38 1013.3
20260502060817 68 49 0.0 2.0 0.00 0.00 0.00 37 1013.4
20260502060312 67 39 0.0 2.0 0.00 0.00 0.00 38 1013.0
20260502055810 68 39 0.0 2.0 0.00 0.00 0.00 38 1013.1
20260502055308 68 37 0.0 2.0 0.00 0.00 0.00 35 1013.1
20260502054807 68 169 0.0 2.0 0.00 0.00 0.00 36 1013.3
20260502054304 67 171 0.0 2.0 0.00 0.00 0.00 37 1013.3
20260502053801 67 129 0.0 0.0 0.00 0.00 0.00 38 1013.2
20260502053259 68 146 0.0 2.0 0.00 0.00 0.00 36 1013.1
20260502052756 68 129 0.0 1.0 0.00 0.00 0.00 37 1013.0
20260502052254 68 118 0.0 2.0 0.00 0.00 0.00 36 1012.7
20260502051752 68 76 1.0 2.0 0.00 0.00 0.00 37 1013.0
20260502051251 68 101 2.0 2.0 0.00 0.00 0.00 37 1012.8
20260502050746 67 142 0.0 2.0 0.00 0.00 0.00 38 1012.7
20260502050242 68 142 0.0 2.0 0.00 0.00 0.00 38 1012.8
20260502045740 69 108 0.0 2.0 0.00 0.00 0.00 37 1012.7
20260502045236 68 102 1.0 2.0 0.00 0.00 0.00 37 1013.0
20260502044733 68 67 0.0 2.0 0.00 0.00 0.00 37 1012.7
20260502044229 68 119 0.0 1.0 0.00 0.00 0.00 37 1013.0
20260502043727 69 145 0.0 1.0 0.00 0.00 0.00 35 1012.7
20260502043225 68 120 1.0 2.0 0.00 0.00 0.00 36 1012.7
20260502042724 69 53 1.0 2.0 0.00 0.00 0.00 36 1012.7
20260502042221 69 147 0.0 1.0 0.00 0.00 0.00 36 1012.7
20260502041719 69 141 0.0 1.0 0.00 0.00 0.00 37 1012.7
20260502041216 69 37 0.0 1.0 0.00 0.00 0.00 37 1012.6
20260502040713 70 134 0.0 1.0 0.00 0.00 0.00 35 1012.6
20260502040210 71 117 0.0 1.0 0.00 0.00 0.00 34 1012.1
20260502035706 71 15 0.0 1.0 0.00 0.00 0.00 34 1012.4
20260502035203 71 88 0.0 1.0 0.00 0.00 0.00 33 1012.2
20260502034700 72 44 0.0 1.0 0.00 0.00 0.00 32 1012.2
20260502034159 73 130 0.0 1.0 0.00 0.00 0.00 31 1012.0
20260502033656 73 37 0.0 1.0 0.00 0.00 0.00 30 1012.3
20260502033154 73 89 0.0 1.0 0.00 0.00 0.00 31 1012.0
20260502032650 74 110 0.0 0.0 0.00 0.00 0.00 29 1011.9
20260502032146 74 104 0.0 1.0 0.00 0.00 0.00 29 1011.7
20260502031644 74 38 0.0 1.0 0.00 0.00 0.00 29 1011.8
20260502031142 74 147 0.0 0.0 0.00 0.00 0.00 28 1011.7
20260502030641 74 135 0.0 0.0 0.00 0.00 0.00 27 1011.8
20260502030138 74 135 0.0 0.0 0.00 0.00 0.00 27 1011.7
20260502025635 75 104 0.0 0.0 0.00 0.00 0.00 26 1011.6
20260502025133 76 104 0.0 0.0 0.00 0.00 0.00 26 1011.4
20260502024631 76 104 0.0 1.0 0.00 0.00 0.00 25 1011.4
20260502024128 78 75 0.0 0.0 0.00 0.00 0.00 24 1011.4
20260502023626 78 124 0.0 0.0 0.00 0.00 0.00 23 1011.3
20260502023123 79 336 0.0 0.0 0.00 0.00 0.00 22 1011.3
20260502022620 81 336 0.0 0.0 0.00 0.00 0.00 21 1011.3
20260502022117 83 336 0.0 1.0 0.00 0.00 0.00 20 1011.2
20260502021615 84 23 1.0 2.0 0.00 0.00 0.00 20 1011.1
20260502021111 84 296 1.0 3.0 0.00 0.00 0.00 19 1011.2
20260502020609 84 242 0.0 3.0 0.00 0.00 0.00 19 1011.2
20260502020106 84 247 4.0 5.0 0.00 0.00 0.00 19 1011.2
20260502015604 84 306 0.0 3.0 0.00 0.00 0.00 20 1011.3
20260502015100 84 211 1.0 3.0 0.00 0.00 0.00 20 1011.3
20260502014557 85 330 0.0 2.0 0.00 0.00 0.00 20 1011.1
20260502014054 85 340 1.0 3.0 0.00 0.00 0.00 20 1011.1
20260502013549 85 349 2.0 5.0 0.00 0.00 0.00 19 1011.0
20260502013046 86 208 2.0 3.0 0.00 0.00 0.00 20 1011.0
20260502012543 86 336 7.0 7.0 0.00 0.00 0.00 19 1011.2
20260502012041 86 5 3.0 6.0 0.00 0.00 0.00 18 1011.1
20260502011537 86 248 2.0 4.0 0.00 0.00 0.00 20 1010.9
20260502011033 86 296 1.0 5.0 0.00 0.00 0.00 20 1011.0
20260502010531 87 339 3.0 7.0 0.00 0.00 0.00 19 1010.9
20260502010027 88 333 4.0 6.0 0.00 0.00 0.00 18 1010.9
20260502005525 88 321 4.0 9.0 0.00 0.00 0.00 19 1011.0